Time,TemperatureF,DewpointF,PressureIn,WindDirection,WindDirectionDegrees,WindSpeedMPH,WindSpeedGustMPH,Humidity,HourlyPrecipIn,Conditions,Clouds,dailyrainin,SoftwareType,DateUTC
2013-02-23 00:14:00,30.1,26.9,29.69,SSW,203,0.0,0.0,88,0.00,,,0.00,WUHU21623XXSP,2013-02-23 05:14:00,
2013-02-23 01:14:00,30.7,27.8,29.68,SSW,203,0.0,0.0,89,0.00,,,0.00,WUHU21623XXSP,2013-02-23 06:14:00,
2013-02-23 02:14:00,29.8,26.4,29.68,South,180,0.0,0.0,87,0.00,,,0.00,WUHU21623XXSP,2013-02-23 07:14:00,
2013-02-23 03:14:00,29.2,25.2,29.67,South,180,13.0,13.0,85,0.00,,,0.00,WUHU21623XXSP,2013-02-23 08:14:00,
2013-02-23 04:14:00,28.5,24.0,29.67,South,180,4.3,4.3,83,0.00,,,0.00,WUHU21623XXSP,2013-02-23 09:14:00,
2013-02-23 05:14:00,28.2,23.4,29.68,South,180,2.0,2.0,82,0.00,,,0.00,WUHU21623XXSP,2013-02-23 10:14:00,
2013-02-23 06:14:00,27.4,22.6,29.69,WSW,248,0.0,0.0,82,0.00,,,0.00,WUHU21623XXSP,2013-02-23 11:14:00,
2013-02-23 07:14:00,26.7,22.5,29.69,SSW,203,0.7,0.7,84,0.00,,,0.00,WUHU21623XXSP,2013-02-23 12:14:00,
2013-02-23 08:14:00,27.1,22.9,29.70,SSW,203,15.0,15.0,84,0.00,,,0.00,WUHU21623XXSP,2013-02-23 13:14:00,
2013-02-23 09:14:00,29.1,24.3,29.69,SSW,203,5.1,5.1,82,0.00,,,0.00,WUHU21623XXSP,2013-02-23 14:14:00,
2013-02-23 10:14:00,32.5,26.7,29.69,South,180,1.1,1.1,79,0.00,,,0.00,WUHU21623XXSP,2013-02-23 15:14:00,
2013-02-23 11:14:00,34.3,26.9,29.70,SSW,203,10.7,10.7,74,0.00,,,0.00,WUHU21623XXSP,2013-02-23 16:14:00,
2013-02-23 12:14:00,34.8,26.1,29.70,SSW,203,4.3,4.3,70,0.00,,,0.00,WUHU21623XXSP,2013-02-23 17:14:00,
2013-02-23 12:57:00,32.8,24.8,29.69,South,180,4.0,4.0,72,0.00,,,0.00,WUHU21623XXSP,2013-02-23 17:57:00,
2013-02-23 13:02:00,33.4,25.4,29.69,West,270,5.4,5.4,72,0.00,,,0.00,WUHU21623XXSP,2013-02-23 18:02:00,
2013-02-23 13:07:00,33.9,25.9,29.69,SSW,202,8.9,8.9,72,0.00,,,0.00,WUHU21623XXSP,2013-02-23 18:07:00,
2013-02-23 13:12:00,35.0,26.3,29.69,WSW,247,0.0,8.9,70,0.00,,,0.00,WUHU21623XXSP,2013-02-23 18:12:00,
2013-02-23 13:17:00,35.0,26.3,29.69,WNW,292,13.6,13.6,70,0.00,,,0.00,WUHU21623XXSP,2013-02-23 18:17:00,
2013-02-23 13:22:00,35.0,25.9,29.69,SW,225,0.0,13.6,69,0.00,,,0.00,WUHU21623XXSP,2013-02-23 18:22:00,
2013-02-23 13:27:00,34.8,25.7,29.69,SSW,202,1.6,1.6,69,0.00,,,0.00,WUHU21623XXSP,2013-02-23 18:27:00,
2013-02-23 13:32:00,35.2,26.1,29.69,NW,315,4.9,4.9,69,0.00,,,0.00,WUHU21623XXSP,2013-02-23 18:32:00,
2013-02-23 13:38:00,35.5,26.1,29.69,SW,225,0.0,4.9,68,0.00,,,0.00,WUHU21623XXSP,2013-02-23 18:38:00,
2013-02-23 13:43:00,35.7,25.9,29.69,SW,225,0.0,0.0,67,0.00,,,0.00,WUHU21623XXSP,2013-02-23 18:43:00,
2013-02-23 13:49:00,35.7,25.9,29.69,SW,225,6.3,7.4,67,0.00,,,0.00,WUHU21623XXSP,2013-02-23 18:49:00,
2013-02-23 13:54:00,35.5,25.7,29.69,SSW,202,5.1,7.4,67,0.00,,,0.00,WUHU21623XXSP,2013-02-23 18:54:00,
2013-02-23 13:59:00,35.2,25.8,29.69,WNW,292,6.0,6.0,68,0.00,,,0.00,WUHU21623XXSP,2013-02-23 18:59:00,
2013-02-23 14:04:00,35.2,25.8,29.70,SSW,202,8.1,8.1,68,0.00,,,0.00,WUHU21623XXSP,2013-02-23 19:04:00,
2013-02-23 14:09:00,34.8,25.4,29.69,SW,225,0.0,8.1,68,0.00,,,0.00,WUHU21623XXSP,2013-02-23 19:09:00,
2013-02-23 14:14:00,34.3,25.3,29.69,SW,225,4.0,6.0,69,0.00,,,0.00,WUHU21623XXSP,2013-02-23 19:14:00,
2013-02-23 14:19:00,33.7,25.4,29.69,SSW,202,10.3,10.3,71,0.00,,,0.00,WUHU21623XXSP,2013-02-23 19:19:00,
2013-02-23 14:24:00,33.4,25.1,29.69,SSW,202,9.4,10.3,71,0.00,,,0.00,WUHU21623XXSP,2013-02-23 19:24:00,
2013-02-23 14:29:00,33.4,25.1,29.69,South,180,4.5,9.4,71,0.00,,,0.00,WUHU21623XXSP,2013-02-23 19:29:00,
2013-02-23 14:34:00,33.4,25.1,29.69,SSW,202,6.3,8.5,71,0.00,,,0.00,WUHU21623XXSP,2013-02-23 19:34:00,
2013-02-23 14:39:00,33.0,25.0,29.69,South,180,8.3,8.5,72,0.00,,,0.00,WUHU21623XXSP,2013-02-23 19:39:00,
2013-02-23 14:44:00,33.0,25.0,29.69,South,180,8.3,8.3,72,0.00,,,0.00,WUHU21623XXSP,2013-02-23 19:44:00,
2013-02-23 14:49:00,32.8,25.1,29.69,South,180,1.3,8.3,73,0.00,,,0.00,WUHU21623XXSP,2013-02-23 19:49:00,
2013-02-23 14:54:00,32.8,25.1,29.69,South,180,3.6,4.0,73,0.00,,,0.00,WUHU21623XXSP,2013-02-23 19:54:00,
2013-02-23 14:59:00,32.8,25.1,29.69,SSW,202,0.0,3.6,73,0.00,,,0.00,WUHU21623XXSP,2013-02-23 19:59:00,
2013-02-23 15:04:00,32.8,25.1,29.69,SSW,202,5.1,5.1,73,0.00,,,0.00,WUHU21623XXSP,2013-02-23 20:04:00,
2013-02-23 15:09:00,32.8,25.1,29.69,SSW,202,0.0,5.1,73,0.00,,,0.00,WUHU21623XXSP,2013-02-23 20:09:00,
2013-02-23 15:14:00,32.8,25.1,29.69,SSW,202,0.0,4.7,73,0.00,,,0.00,WUHU21623XXSP,2013-02-23 20:14:00,
2013-02-23 15:19:00,32.7,24.7,29.69,SW,225,2.5,2.5,72,0.00,,,0.00,WUHU21623XXSP,2013-02-23 20:19:00,
2013-02-23 15:24:00,32.5,24.5,29.69,South,180,3.4,3.4,72,0.00,,,0.00,WUHU21623XXSP,2013-02-23 20:24:00,
2013-02-23 15:29:00,32.7,24.7,29.69,SW,225,4.3,4.3,72,0.00,,,0.00,WUHU21623XXSP,2013-02-23 20:29:00,
2013-02-23 15:34:00,32.5,24.2,29.69,South,180,2.7,4.5,71,0.00,,,0.00,WUHU21623XXSP,2013-02-23 20:34:00,
2013-02-23 15:39:00,32.5,24.2,29.69,WSW,247,2.7,4.5,71,0.00,,,0.00,WUHU21623XXSP,2013-02-23 20:39:00,
2013-02-23 15:44:00,32.7,24.4,29.69,South,180,6.5,6.5,71,0.00,,,0.00,WUHU21623XXSP,2013-02-23 20:44:00,
2013-02-23 15:49:00,32.8,24.5,29.69,West,270,3.4,6.5,71,0.00,,,0.00,WUHU21623XXSP,2013-02-23 20:49:00,
2013-02-23 15:54:00,32.8,24.2,29.69,SSW,202,3.6,3.6,70,0.00,,,0.00,WUHU21623XXSP,2013-02-23 20:54:00,
2013-02-23 15:59:00,33.2,24.2,29.69,SSW,202,2.9,3.6,69,0.00,,,0.00,WUHU21623XXSP,2013-02-23 20:59:00,
2013-02-23 16:04:00,33.4,24.4,29.69,SSW,202,0.0,2.9,69,0.00,,,0.00,WUHU21623XXSP,2013-02-23 21:04:00,
2013-02-23 16:09:00,33.7,24.7,29.69,SW,225,2.7,3.1,69,0.00,,,0.00,WUHU21623XXSP,2013-02-23 21:09:00,
2013-02-23 16:14:00,33.9,24.5,29.69,West,270,3.4,3.4,68,0.00,,,0.00,WUHU21623XXSP,2013-02-23 21:14:00,
2013-02-23 16:19:00,33.9,24.2,29.69,WSW,247,0.0,3.4,67,0.00,,,0.00,WUHU21623XXSP,2013-02-23 21:19:00,
2013-02-23 16:24:00,33.7,24.0,29.69,SSW,202,2.7,2.7,67,0.00,,,0.00,WUHU21623XXSP,2013-02-23 21:24:00,
2013-02-23 16:29:00,33.7,24.0,29.69,SSW,202,2.7,2.7,67,0.00,,,0.00,WUHU21623XXSP,2013-02-23 21:29:00,
2013-02-23 16:34:00,33.7,24.0,29.70,WSW,247,2.9,2.9,67,0.00,,,0.00,WUHU21623XXSP,2013-02-23 21:34:00,
2013-02-23 16:39:00,33.2,23.5,29.69,WSW,247,0.0,2.9,67,0.00,,,0.00,WUHU21623XXSP,2013-02-23 21:39:00,
2013-02-23 16:44:00,32.8,22.8,29.70,WSW,247,2.7,2.7,66,0.00,,,0.00,WUHU21623XXSP,2013-02-23 21:44:00,
2013-02-23 16:49:00,32.3,22.3,29.70,West,270,2.9,2.9,66,0.00,,,0.00,WUHU21623XXSP,2013-02-23 21:49:00,
2013-02-23 16:54:00,32.1,22.4,29.70,SW,225,2.2,2.9,67,0.00,,,0.00,WUHU21623XXSP,2013-02-23 21:54:00,
2013-02-23 16:59:00,31.6,22.0,29.70,SSW,202,6.3,6.3,67,0.00,,,0.00,WUHU21623XXSP,2013-02-23 21:59:00,
2013-02-23 17:04:00,31.2,21.6,29.70,SW,225,4.5,6.3,67,0.00,,,0.00,WUHU21623XXSP,2013-02-23 22:04:00,
2013-02-23 17:09:00,30.7,21.5,29.70,SSW,202,6.7,6.7,68,0.00,,,0.00,WUHU21623XXSP,2013-02-23 22:09:00,
2013-02-23 17:14:00,30.3,21.1,29.70,WSW,247,3.4,6.7,68,0.00,,,0.00,WUHU21623XXSP,2013-02-23 22:14:00,
2013-02-23 17:19:00,29.8,20.9,29.70,SSW,202,7.2,7.2,69,0.00,,,0.00,WUHU21623XXSP,2013-02-23 22:19:00,
2013-02-23 17:24:00,29.6,20.7,29.71,SW,225,0.0,7.2,69,0.00,,,0.00,WUHU21623XXSP,2013-02-23 22:24:00,
2013-02-23 17:29:00,29.2,20.4,29.71,SW,225,0.0,0.0,69,0.00,,,0.00,WUHU21623XXSP,2013-02-23 22:29:00,
2013-02-23 17:34:00,29.1,20.6,29.71,South,180,0.0,0.0,70,0.00,,,0.00,WUHU21623XXSP,2013-02-23 22:34:00,
2013-02-23 17:39:00,28.7,20.2,29.71,SSW,202,6.0,6.0,70,0.00,,,0.00,WUHU21623XXSP,2013-02-23 22:39:00,
2013-02-23 17:44:00,28.7,20.5,29.71,South,180,7.2,7.2,71,0.00,,,0.00,WUHU21623XXSP,2013-02-23 22:44:00,
2013-02-23 17:49:00,28.5,20.3,29.71,SSW,202,1.6,7.2,71,0.00,,,0.00,WUHU21623XXSP,2013-02-23 22:49:00,
2013-02-23 17:54:00,28.5,20.3,29.71,SSW,202,1.3,1.6,71,0.00,,,0.00,WUHU21623XXSP,2013-02-23 22:54:00,
2013-02-23 17:59:00,28.2,20.4,29.71,SW,225,3.6,5.8,72,0.00,,,0.00,WUHU21623XXSP,2013-02-23 22:59:00,
2013-02-23 18:06:00,28.0,20.2,29.71,SSW,202,5.6,5.8,72,0.00,,,0.00,WUHU21623XXSP,2013-02-23 23:06:00,
2013-02-23 18:11:00,28.0,20.5,29.71,West,270,5.4,5.6,73,0.00,,,0.00,WUHU21623XXSP,2013-02-23 23:11:00,
2013-02-23 18:16:00,27.6,20.1,29.72,SSW,202,2.5,5.4,73,0.00,,,0.00,WUHU21623XXSP,2013-02-23 23:16:00,
2013-02-23 18:21:00,27.3,20.1,29.72,South,180,8.3,8.3,74,0.00,,,0.00,WUHU21623XXSP,2013-02-23 23:21:00,
2013-02-23 18:26:00,27.3,20.1,29.72,South,180,8.3,8.3,74,0.00,,,0.00,WUHU21623XXSP,2013-02-23 23:26:00,
2013-02-23 18:31:00,27.1,20.0,29.73,SSW,202,2.5,8.3,74,0.00,,,0.00,WUHU21623XXSP,2013-02-23 23:31:00,
2013-02-23 18:36:00,27.1,20.3,29.72,SSW,202,2.5,8.1,75,0.00,,,0.00,WUHU21623XXSP,2013-02-23 23:36:00,
2013-02-23 18:41:00,27.1,20.3,29.73,SSW,202,3.6,3.6,75,0.00,,,0.00,WUHU21623XXSP,2013-02-23 23:41:00,
2013-02-23 18:46:00,27.1,20.3,29.73,SSW,202,3.6,3.6,75,0.00,,,0.00,WUHU21623XXSP,2013-02-23 23:46:00,
2013-02-23 18:51:00,26.9,20.4,29.73,WSW,247,0.0,3.6,76,0.00,,,0.00,WUHU21623XXSP,2013-02-23 23:51:00,
2013-02-23 18:56:00,26.7,20.2,29.73,South,180,0.0,1.6,76,0.00,,,0.00,WUHU21623XXSP,2013-02-23 23:56:00,
2013-02-23 19:03:00,26.7,20.2,29.73,SSW,202,5.4,5.4,76,0.00,,,0.00,WUHU21623XXSP,2013-02-24 00:03:00,
2013-02-23 19:08:00,26.7,20.5,29.73,South,180,7.4,7.4,77,0.00,,,0.00,WUHU21623XXSP,2013-02-24 00:08:00,
2013-02-23 19:13:00,26.5,20.3,29.74,SW,225,1.3,7.4,77,0.00,,,0.00,WUHU21623XXSP,2013-02-24 00:13:00,
2013-02-23 19:18:00,26.5,20.3,29.73,West,270,0.0,1.3,77,0.00,,,0.00,WUHU21623XXSP,2013-02-24 00:18:00,
2013-02-23 19:23:00,26.5,20.3,29.73,SSW,202,6.5,6.5,77,0.00,,,0.00,WUHU21623XXSP,2013-02-24 00:23:00,
2013-02-23 19:28:00,26.5,20.3,29.73,SSW,202,4.7,6.5,77,0.00,,,0.00,WUHU21623XXSP,2013-02-24 00:28:00,
2013-02-23 19:33:00,26.2,20.0,29.73,South,180,7.8,7.8,77,0.00,,,0.00,WUHU21623XXSP,2013-02-24 00:33:00,
2013-02-23 19:38:00,26.2,20.3,29.73,SSW,202,4.9,7.8,78,0.00,,,0.00,WUHU21623XXSP,2013-02-24 00:38:00,
2013-02-23 19:43:00,26.2,20.3,29.74,SSW,202,0.0,4.9,78,0.00,,,0.00,WUHU21623XXSP,2013-02-24 00:43:00,
2013-02-23 19:49:00,26.2,20.3,29.73,SSW,202,0.0,0.0,78,0.00,,,0.00,WUHU21623XXSP,2013-02-24 00:49:00,
2013-02-23 19:54:00,26.2,20.3,29.74,South,180,0.0,0.0,78,0.00,,,0.00,WUHU21623XXSP,2013-02-24 00:54:00,
2013-02-23 19:59:00,26.2,20.3,29.73,South,180,0.0,0.0,78,0.00,,,0.00,WUHU21623XXSP,2013-02-24 00:59:00,
2013-02-23 20:04:00,26.0,20.1,29.73,SSW,202,4.0,4.0,78,0.00,,,0.00,WUHU21623XXSP,2013-02-24 01:04:00,
2013-02-23 20:09:00,26.2,20.3,29.73,SSW,202,5.4,5.4,78,0.00,,,0.00,WUHU21623XXSP,2013-02-24 01:09:00,
2013-02-23 20:14:00,26.0,20.1,29.73,SSW,202,0.0,5.4,78,0.00,,,0.00,WUHU21623XXSP,2013-02-24 01:14:00,
2013-02-23 20:19:00,26.2,20.3,29.73,South,180,2.2,3.4,78,0.00,,,0.00,WUHU21623XXSP,2013-02-24 01:19:00,
2013-02-23 20:24:00,26.0,20.1,29.73,SSW,202,0.0,2.2,78,0.00,,,0.00,WUHU21623XXSP,2013-02-24 01:24:00,
2013-02-23 20:29:00,26.0,20.1,29.74,SSW,202,2.5,2.5,78,0.00,,,0.00,WUHU21623XXSP,2013-02-24 01:29:00,
2013-02-23 20:34:00,26.0,20.1,29.74,South,180,3.6,3.6,78,0.00,,,0.00,WUHU21623XXSP,2013-02-24 01:34:00,
2013-02-23 20:39:00,26.0,20.1,29.73,SSW,202,2.0,3.6,78,0.00,,,0.00,WUHU21623XXSP,2013-02-24 01:39:00,
2013-02-23 20:44:00,25.8,19.9,29.74,SSW,202,5.4,5.4,78,0.00,,,0.00,WUHU21623XXSP,2013-02-24 01:44:00,
2013-02-23 20:49:00,25.8,19.9,29.73,SSW,202,0.0,5.4,78,0.00,,,0.00,WUHU21623XXSP,2013-02-24 01:49:00,
2013-02-23 20:54:00,25.8,19.9,29.73,SSW,202,0.0,0.0,78,0.00,,,0.00,WUHU21623XXSP,2013-02-24 01:54:00,
2013-02-23 20:59:00,25.6,19.7,29.73,SSW,202,7.2,7.2,78,0.00,,,0.00,WUHU21623XXSP,2013-02-24 01:59:00,
2013-02-23 21:04:00,25.6,19.7,29.73,SSW,202,0.0,7.2,78,0.00,,,0.00,WUHU21623XXSP,2013-02-24 02:04:00,
2013-02-23 21:10:00,25.6,19.7,29.73,SSW,202,0.0,0.0,78,0.00,,,0.00,WUHU21623XXSP,2013-02-24 02:10:00,
2013-02-23 21:15:00,25.6,19.7,29.74,WSW,247,0.0,0.0,78,0.00,,,0.00,WUHU21623XXSP,2013-02-24 02:15:00,
2013-02-23 21:20:00,25.6,19.7,29.74,SSW,202,0.0,0.0,78,0.00,,,0.00,WUHU21623XXSP,2013-02-24 02:20:00,
2013-02-23 21:25:00,25.6,19.7,29.74,South,180,2.2,2.2,78,0.00,,,0.00,WUHU21623XXSP,2013-02-24 02:25:00,
2013-02-23 21:30:00,25.5,19.9,29.74,West,270,0.0,2.2,79,0.00,,,0.00,WUHU21623XXSP,2013-02-24 02:30:00,
2013-02-23 21:40:00,25.3,19.7,29.73,SSE,157,6.7,6.7,79,0.00,,,0.00,WUHU21623XXSP,2013-02-24 02:40:00,
2013-02-23 21:45:00,25.3,19.7,29.73,SW,225,5.1,6.7,79,0.00,,,0.00,WUHU21623XXSP,2013-02-24 02:45:00,
2013-02-23 21:50:00,25.3,19.7,29.73,West,270,0.0,5.1,79,0.00,,,0.00,WUHU21623XXSP,2013-02-24 02:50:00,
2013-02-23 21:55:00,25.1,19.5,29.73,SW,225,0.0,0.0,79,0.00,,,0.00,WUHU21623XXSP,2013-02-24 02:55:00,
2013-02-23 22:00:00,25.1,19.5,29.73,South,180,2.9,2.9,79,0.00,,,0.00,WUHU21623XXSP,2013-02-24 03:00:00,
2013-02-23 22:05:00,24.9,19.3,29.74,SW,225,0.0,2.9,79,0.00,,,0.00,WUHU21623XXSP,2013-02-24 03:05:00,
2013-02-23 22:10:00,24.9,19.3,29.73,SSW,202,0.0,0.0,79,0.00,,,0.00,WUHU21623XXSP,2013-02-24 03:10:00,
2013-02-23 22:15:00,24.9,19.3,29.73,SW,225,0.0,0.0,79,0.00,,,0.00,WUHU21623XXSP,2013-02-24 03:15:00,
2013-02-23 22:20:00,24.9,19.3,29.73,SSW,202,0.0,0.0,79,0.00,,,0.00,WUHU21623XXSP,2013-02-24 03:20:00,
2013-02-23 22:25:00,24.9,19.3,29.73,SW,225,7.6,7.6,79,0.00,,,0.00,WUHU21623XXSP,2013-02-24 03:25:00,
2013-02-23 22:30:00,24.9,19.3,29.72,NE,45,0.0,7.6,79,0.00,,,0.00,WUHU21623XXSP,2013-02-24 03:30:00,
2013-02-23 22:35:00,24.9,19.3,29.72,SSW,202,0.0,0.0,79,0.00,,,0.00,WUHU21623XXSP,2013-02-24 03:35:00,
2013-02-23 22:40:00,24.9,19.3,29.72,WSW,247,0.0,0.0,79,0.00,,,0.00,WUHU21623XXSP,2013-02-24 03:40:00,
2013-02-23 22:45:00,24.9,19.3,29.72,WSW,247,0.0,0.0,79,0.00,,,0.00,WUHU21623XXSP,2013-02-24 03:45:00,
2013-02-23 22:50:00,24.9,19.3,29.72,SSW,202,7.8,7.8,79,0.00,,,0.00,WUHU21623XXSP,2013-02-24 03:50:00,
2013-02-23 22:57:00,24.9,19.6,29.73,SSE,157,3.1,3.1,80,0.00,,,0.00,WUHU21623XXSP,2013-02-24 03:57:00,
2013-02-23 23:02:00,24.9,19.6,29.73,SSE,157,3.1,3.1,80,0.00,,,0.00,WUHU21623XXSP,2013-02-24 04:02:00,
2013-02-23 23:07:00,24.9,19.6,29.72,WSW,247,0.0,0.0,80,0.00,,,0.00,WUHU21623XXSP,2013-02-24 04:07:00,
2013-02-23 23:12:00,24.9,19.6,29.72,SSW,202,1.1,2.0,80,0.00,,,0.00,WUHU21623XXSP,2013-02-24 04:12:00,
2013-02-23 23:17:00,24.9,19.6,29.72,SSW,202,4.3,4.3,80,0.00,,,0.00,WUHU21623XXSP,2013-02-24 04:17:00,
2013-02-23 23:22:00,24.9,19.6,29.71,South,180,0.0,4.3,80,0.00,,,0.00,WUHU21623XXSP,2013-02-24 04:22:00,
2013-02-23 23:27:00,24.7,19.4,29.71,SSW,202,0.0,0.0,80,0.00,,,0.00,WUHU21623XXSP,2013-02-24 04:27:00,
2013-02-23 23:33:00,24.7,19.4,29.71,South,180,0.0,0.0,80,0.00,,,0.00,WUHU21623XXSP,2013-02-24 04:33:00,
2013-02-23 23:38:00,24.7,19.4,29.71,SSW,202,0.0,0.0,80,0.00,,,0.00,WUHU21623XXSP,2013-02-24 04:38:00,
2013-02-23 23:43:00,24.6,19.3,29.71,SSW,202,5.6,5.6,80,0.00,,,0.00,WUHU21623XXSP,2013-02-24 04:43:00,
2013-02-23 23:48:00,24.6,19.6,29.71,SSW,202,0.0,5.6,81,0.00,,,0.00,WUHU21623XXSP,2013-02-24 04:48:00,
2013-02-23 23:53:00,24.4,19.4,29.71,West,270,0.0,0.0,81,0.00,,,0.00,WUHU21623XXSP,2013-02-24 04:53:00,